EW9733 Weather Reports


time (UTC)temp
F
wind
direction
speed
knots
gust
knots
rain 1hr
in
rain 24hr
in
rain mn
in
humidity
%
barometer
mb
20260506000008 61 211 2.6 11.3 0.00 0.00 0.00 67 1008.1
20260505234513 62 200 2.6 12.2 0.00 0.00 0.00 66 1007.8
20260505233007 63 141 4.3 15.6 0.00 0.00 0.00 65 1007.7
20260505231507 64 150 4.3 19.1 0.00 0.00 0.00 64 1007.6
20260505230010 64 180 4.3 13.9 0.00 0.00 0.00 62 1007.0
20260505224505 66 131 5.2 15.6 0.00 0.00 0.00 59 1006.8
20260505223005 67 236 1.7 13.9 0.00 0.00 0.00 57 1006.9
20260505221504 68 197 7.0 17.4 0.00 0.00 0.00 54 1006.8
20260505220003 68 205 5.2 14.8 0.00 0.00 0.00 54 1006.6
20260505214502 69 192 5.2 18.2 0.00 0.00 0.00 55 1006.5
20260505213004 69 204 4.3 13.0 0.00 0.00 0.00 55 1006.5
20260505211502 70 185 7.8 16.5 0.00 0.00 0.00 52 1006.5
20260505210100 71 223 3.5 19.1 0.00 0.00 0.00 53 1006.3
20260505204600 72 156 6.1 13.9 0.00 0.00 0.00 51 1006.5
20260505203121 73 190 1.7 12.2 0.00 0.00 0.00 50 1006.4
20260505201604 73 181 5.2 16.5 0.00 0.00 0.00 48 1006.7
20260505200059 74 221 4.3 13.9 0.00 0.00 0.00 47 1006.4
20260505194556 75 169 4.3 22.6 0.00 0.00 0.00 45 1006.5
20260505193056 76 189 5.2 13.0 0.00 0.00 0.00 45 1006.5
20260505191605 77 212 3.5 17.4 0.00 0.00 0.00 43 1006.5
20260505190055 77 144 4.3 13.9 0.00 0.00 0.00 45 1006.7
20260505184552 77 171 5.2 17.4 0.00 0.00 0.00 44 1006.8
20260505183049 76 180 6.1 20.0 0.00 0.00 0.00 45 1007.1
20260505181550 77 185 5.2 14.8 0.00 0.00 0.00 44 1007.3
20260505180051 77 223 6.1 17.4 0.00 0.00 0.00 46 1007.3
20260505174547 76 169 4.3 18.2 0.00 0.00 0.00 49 1007.7
20260505173049 76 233 5.2 13.0 0.00 0.00 0.00 46 1007.8
20260505171548 78 215 4.3 17.4 0.00 0.00 0.00 47 1007.6
20260505164543 78 178 2.6 8.7 0.00 0.00 0.00 46 1008.0
20260505163041 77 190 2.6 10.4 0.00 0.00 0.00 47 1008.2
20260505161535 76 222 1.7 7.8 0.00 0.00 0.00 49 1008.5
20260505153024 73 196 2.6 7.0 0.00 0.00 0.00 56 1008.5
20260505151521 71 200 2.6 7.0 0.00 0.00 0.00 56 1008.7
20260505124549 62 225 3.5 20.0 0.00 0.00 0.00 70 1009.3
20260505123044 61 202 2.6 9.6 0.00 0.00 0.00 72 1009.1
20260505121541 59 181 1.7 7.8 0.00 0.00 0.00 75 1009.2
20260505120039 58 234 1.7 8.7 0.00 0.00 0.00 77 1009.2
20260505114533 56 183 2.6 9.6 0.00 0.00 0.00 80 1009.1
20260505113027 55 200 1.7 8.7 0.00 0.00 0.00 83 1009.2
20260505111522 54 211 3.5 10.4 0.00 0.00 0.00 85 1009.2
20260505101514 51 132 1.7 8.7 0.00 0.00 0.00 88 1009.2
20260505100008 51 194 0.9 6.1 0.00 0.00 0.00 87 1009.1
20260505094505 51 204 1.7 6.1 0.00 0.00 0.00 87 1009.4
20260505093011 51 147 0.9 7.0 0.00 0.00 0.00 86 1009.4
20260505091502 51 174 0.9 6.1 0.00 0.00 0.00 86 1009.4
20260505090108 51 221 0.9 6.1 0.00 0.00 0.00 86 1009.6
20260505084600 51 163 0.9 5.2 0.00 0.00 0.00 86 1009.4
20260505083105 51 150 0.9 5.2 0.00 0.00 0.00 85 1009.3
20260505081558 51 186 0.0 6.1 0.00 0.00 0.00 85 1009.5
20260505080056 51 213 0.9 7.0 0.00 0.00 0.00 85 1009.5
20260505074554 51 215 0.9 7.0 0.00 0.00 0.00 85 1009.6
20260505073057 51 149 0.9 6.1 0.00 0.00 0.00 84 1009.6
20260505071555 51 129 0.0 7.8 0.00 0.00 0.00 84 1009.6
20260505070051 51 196 0.9 8.7 0.00 0.00 0.00 84 1009.6
20260505064549 51 172 0.0 7.0 0.00 0.00 0.00 83 1009.7
20260505063048 51 147 0.9 5.2 0.00 0.00 0.00 82 1009.7
20260505061548 51 161 0.0 5.2 0.00 0.00 0.00 82 1009.8
20260505060045 52 140 0.0 3.5 0.00 0.00 0.00 81 1009.9
20260505054545 52 207 0.9 4.3 0.00 0.00 0.00 80 1009.8
20260505053046 52 184 0.0 9.6 0.00 0.00 0.00 80 1009.7
20260505051539 52 279 0.9 6.1 0.00 0.00 0.00 79 1009.8
20260505041531 53 267 1.7 7.0 0.00 0.00 0.00 75 1009.9
20260505040029 53 156 2.6 10.4 0.00 0.00 0.00 74 1009.8
20260505034528 54 221 0.9 9.6 0.00 0.00 0.00 73 1009.9
20260505033042 54 151 1.7 6.1 0.00 0.00 0.00 71 1009.8
20260505031527 54 104 0.9 6.1 0.00 0.00 0.00 70 1009.8
20260505030029 55 209 2.6 7.8 0.00 0.00 0.00 69 1010.0
20260505024528 55 196 0.9 10.4 0.00 0.00 0.00 69 1009.9
20260505023024 55 174 1.7 8.7 0.00 0.00 0.00 68 1009.9
20260505021523 55 159 3.5 8.7 0.00 0.00 0.00 68 1009.9
20260505020024 56 188 1.7 7.8 0.00 0.00 0.00 66 1009.9
20260505014522 56 167 2.6 7.0 0.00 0.00 0.00 65 1009.9
20260505013021 56 179 1.7 7.8 0.00 0.00 0.00 63 1009.8
20260505011522 57 138 0.9 7.0 0.00 0.00 0.00 62 1009.5
20260505010021 57 190 1.7 11.3 0.00 0.00 0.00 60 1009.3
20260505004536 57 182 3.5 7.8 0.00 0.00 0.00 58 1008.9
20260505003019 58 207 4.3 10.4 0.00 0.00 0.00 56 1008.6
20260505001521 59 184 2.6 7.8 0.00 0.00 0.00 54 1008.1